Craig, CO

6:04 PM MDT on April 23, 2018 (GMT -0600)
Craig-Moffat

Weather History for KCAG - January, 2013

Change the Weather History Date:

Wednesday, January 16, 2013

  Actual Average Record
Temperature  
Mean Temperature 2 °F 16 °F  
Max Temperature 15 °F 29 °F 46 °F (2000)
Min Temperature -11 °F 2 °F -29 °F (2007)
Degree Days  
Heating Degree Days 63 49  
Month to date heating degree days 1056 799  
Since 1 July heating degree days 4227 4355  
Cooling Degree Days 0 0  
Month to date cooling degree days 0 0  
Year to date cooling degree days 0 0  
Moisture  
Dew Point -5 °F    
Average Humidity 75    
Maximum Humidity 83    
Minimum Humidity 67    
Precipitation  
Precipitation 0.00 in 0.03 in 0.20 in (2016)
Month to date precipitation 0.26 0.43  
Year to date precipitation 0.26 0.43  
Sea Level Pressure  
Sea Level Pressure 30.76 in    
Wind  
Wind Speed 2 mph (WSW)    
Max Wind Speed 9 mph    
Max Gust Speed 10 mph    
Visibility 10 miles    
Events      
T = Trace of Precipitation, MM = Missing Value Source: NWS Daily Summary

Daily Weather History Graph

Daily Weather History Graph

Search for Another Location

Airport or City:

Astronomy

Jan. 16, 2013 Rise Set
Actual Time 7:30 AM MST 5:09 PM MST
Civil Twilight 7:00 AM MST 5:39 PM MST
Nautical Twilight 6:27 AM MST 6:13 PM MST
Astronomical Twilight 5:54 AM MST 6:45 PM MST
Moon 10:07 AM MST (1/16) 11:05 PM MST (1/16)
Length of Visible Light 10h 38m
Length of Day
9h 38m
Waxing Crescent, 29% of the Moon is Illuminated
Jan 16
Waxing Crescent
Jan 18
First Quarter
Jan 26
Full
Feb 3
Last Quarter
Feb 10
New

Hourly Weather History & Observations

Time (MST) Temp. Windchill Dew Point Humidity Pressure Visibility Wind Dir Wind Speed Gust Speed Precip Events Conditions
12:53 AM 8.1 °F -2.0 °F 1.0 °F 73% 30.69 in 10.0 mi SW 5.8 mph - N/A   Overcast
1:53 AM 5.0 °F -8.1 °F -2.0 °F 73% 30.71 in 10.0 mi SSW 8.1 mph - N/A   Mostly Cloudy
2:53 AM -0.0 °F -9.9 °F -6.0 °F 76% 30.75 in 10.0 mi West 4.6 mph - N/A   Mostly Cloudy
3:53 AM -4.0 °F -12.4 °F -9.0 °F 79% 30.77 in 10.0 mi NNW 3.5 mph - N/A   Clear
4:53 AM -7.1 °F -15.9 °F -11.0 °F 83% 30.77 in 10.0 mi NW 3.5 mph - N/A   Clear
5:53 AM -4.0 °F -12.4 °F -9.0 °F 79% 30.78 in 10.0 mi ENE 3.5 mph - N/A   Overcast
6:17 AM -2.2 °F - -7.6 °F 78% 30.42 in 10.0 mi Calm Calm - N/A   Overcast
6:36 AM -5.8 °F - -9.4 °F 84% 30.42 in 10.0 mi Calm Calm - N/A   Scattered Clouds
6:53 AM -7.1 °F - -11.0 °F 83% 30.81 in 10.0 mi Calm Calm - N/A   Clear
7:53 AM -8.0 °F - -13.0 °F 79% 30.83 in 10.0 mi Calm Calm - N/A   Partly Cloudy
8:53 AM -2.9 °F - -7.1 °F 82% 30.82 in 10.0 mi Calm Calm - N/A   Clear
9:53 AM -0.9 °F - -5.1 °F 83% 30.82 in 10.0 mi Calm Calm - N/A   Clear
10:53 AM 3.9 °F -5.3 °F -2.0 °F 76% 30.79 in 10.0 mi SW 4.6 mph - N/A   Clear
11:53 AM 8.6 °F - 1.4 °F 73% 30.46 in 10.0 mi Calm Calm - N/A   Clear
12:53 PM 10.4 °F - 3.2 °F 73% 30.44 in 10.0 mi Calm Calm - N/A   Clear
1:53 PM 12.9 °F - 3.9 °F 67% 30.71 in 10.0 mi Calm Calm - 0.00 in   Clear
2:53 PM 14.0 °F 6.5 °F 5.0 °F 67% 30.73 in 10.0 mi SW 4.6 mph - N/A   Clear
3:53 PM 10.9 °F 2.9 °F 3.9 °F 73% 30.76 in 10.0 mi SW 4.6 mph - N/A   Clear
4:53 PM 8.1 °F - -0.0 °F 70% 30.79 in 10.0 mi Calm Calm - N/A   Clear
5:53 PM 3.0 °F - -2.9 °F 76% 30.83 in 10.0 mi Calm Calm - N/A   Clear
6:53 PM -0.0 °F - -4.0 °F 83% 30.87 in 10.0 mi Calm Calm - N/A   Clear
7:53 PM -0.9 °F - -6.0 °F 79% 30.90 in 10.0 mi Calm Calm - N/A   Clear
8:53 PM -7.1 °F - -11.0 °F 83% 30.90 in 10.0 mi Calm Calm - N/A   Clear
9:53 PM -7.1 °F - -11.9 °F 79% 30.89 in 10.0 mi Calm Calm - N/A   Clear
10:53 PM -8.0 °F - -13.0 °F 79% 30.88 in 10.0 mi Calm Calm - N/A   Clear
11:53 PM -8.0 °F - -15.0 °F 71% 30.87 in 10.0 mi Calm Calm - N/A   Clear